| time (UTC) | temp F | wind direction | speed MPH | gust MPH | rain 1hr in | rain 24hr in | rain mn in | humidity % | barometer mb |
| 20260505094540 | 53 | 90 | 0.0 | 1.0 | 0.00 | 0.00 | 0.00 | 85 | 989.3 |
| 20260505093039 | 53 | 97 | 0.0 | 2.0 | 0.00 | 0.00 | 0.00 | 85 | 989.3 |
| 20260505091551 | 53 | 179 | 0.0 | 1.0 | 0.00 | 0.00 | 0.00 | 84 | 989.3 |
| 20260505090050 | 53 | 198 | 0.0 | 1.0 | 0.00 | 0.00 | 0.00 | 84 | 989.2 |
| 20260505084537 | 53 | 96 | 0.0 | 1.0 | 0.00 | 0.00 | 0.00 | 82 | 989.1 |
| 20260505083041 | 53 | 122 | 0.0 | 2.0 | 0.00 | 0.00 | 0.00 | 82 | 989.0 |
| 20260505081549 | 53 | 121 | 0.0 | 0.0 | 0.00 | 0.00 | 0.00 | 81 | 988.8 |
| 20260505080039 | 54 | 122 | 0.0 | 1.0 | 0.00 | 0.00 | 0.00 | 78 | 988.6 |
| 20260505074528 | 54 | 153 | 0.0 | 1.0 | 0.00 | 0.00 | 0.00 | 79 | 988.5 |
| 20260505073027 | 55 | 195 | 0.0 | 0.0 | 0.00 | 0.00 | 0.00 | 79 | 988.3 |
| 20260505071529 | 55 | 196 | 0.0 | 1.0 | 0.00 | 0.00 | 0.00 | 77 | 988.2 |
| 20260505070027 | 55 | 175 | 0.0 | 3.0 | 0.00 | 0.00 | 0.00 | 76 | 988.0 |
| 20260505064523 | 55 | 227 | 0.0 | 4.0 | 0.00 | 0.00 | 0.00 | 75 | 987.9 |
| 20260505063028 | 56 | 231 | 0.0 | 5.0 | 0.00 | 0.00 | 0.00 | 74 | 987.8 |
| 20260505061529 | 56 | 240 | 1.0 | 4.0 | 0.00 | 0.00 | 0.00 | 73 | 987.8 |
| 20260505060017 | 56 | 249 | 0.0 | 3.0 | 0.00 | 0.00 | 0.00 | 73 | 987.7 |
| 20260505054522 | 56 | 226 | 0.0 | 5.0 | 0.00 | 0.00 | 0.00 | 73 | 987.5 |
| 20260505053014 | 56 | 274 | 2.0 | 6.0 | 0.00 | 0.00 | 0.00 | 75 | 987.5 |
| 20260505051512 | 57 | 250 | 1.0 | 8.0 | 0.00 | 0.00 | 0.00 | 75 | 987.3 |
| 20260505041507 | 57 | 233 | 3.0 | 7.0 | 0.00 | 0.00 | 0.00 | 75 | 986.8 |
| 20260505040007 | 58 | 248 | 1.0 | 6.0 | 0.00 | 0.00 | 0.00 | 72 | 986.7 |
| 20260505034504 | 57 | 344 | 3.0 | 7.0 | 0.00 | 0.00 | 0.00 | 71 | 986.6 |
| 20260505033003 | 56 | 309 | 3.0 | 5.0 | 0.00 | 0.00 | 0.00 | 74 | 986.6 |
| 20260505031501 | 56 | 260 | 2.0 | 9.0 | 0.00 | 0.00 | 0.00 | 76 | 986.7 |
| 20260505024610 | 56 | 232 | 1.0 | 5.0 | 0.00 | 0.00 | 0.00 | 78 | 986.6 |
| 20260505023059 | 57 | 278 | 3.0 | 6.0 | 0.00 | 0.00 | 0.00 | 78 | 986.7 |
| 20260505021612 | 57 | 330 | 2.0 | 8.0 | 0.00 | 0.00 | 0.00 | 81 | 986.9 |
| 20260505020055 | 56 | 255 | 2.0 | 7.0 | 0.00 | 0.00 | 0.00 | 81 | 987.0 |
| 20260505014555 | 56 | 249 | 3.0 | 9.0 | 0.00 | 0.00 | 0.00 | 81 | 987.1 |
| 20260505013057 | 55 | 319 | 2.0 | 6.0 | 0.00 | 0.00 | 0.00 | 81 | 987.0 |
| 20260505011556 | 56 | 316 | 4.0 | 8.0 | 0.00 | 0.00 | 0.00 | 82 | 987.1 |
| 20260505010050 | 56 | 261 | 1.0 | 6.0 | 0.00 | 0.00 | 0.00 | 82 | 986.9 |
| 20260505004548 | 55 | 323 | 1.0 | 8.0 | 0.00 | 0.00 | 0.00 | 86 | 986.9 |
| 20260505003044 | 54 | 212 | 4.0 | 10.0 | 0.00 | 0.00 | 0.00 | 86 | 986.8 |
| 20260505001542 | 54 | 283 | 1.0 | 8.0 | 0.00 | 0.00 | 0.00 | 90 | 986.7 |
| 20260505000042 | 53 | 209 | 3.0 | 6.0 | 0.00 | 0.00 | 0.00 | 94 | 986.6 |
| 20260504234537 | 52 | 307 | 2.0 | 3.0 | 0.00 | 0.00 | 0.00 | 96 | 986.6 |
| 20260504233050 | 52 | 299 | 0.0 | 0.0 | 0.00 | 0.00 | 0.00 | 96 | 986.6 |
| 20260504231534 | 52 | 113 | 0.0 | 0.0 | 0.00 | 0.00 | 0.00 | 96 | 986.5 |
| 20260504230034 | 51 | 113 | 0.0 | 0.0 | 0.00 | 0.00 | 0.00 | 96 | 986.5 |
| 20260504224533 | 51 | 113 | 0.0 | 0.0 | 0.00 | 0.00 | 0.00 | 96 | 986.4 |
| 20260504223036 | 51 | 113 | 0.0 | 0.0 | 0.00 | 0.00 | 0.00 | 96 | 986.3 |
| 20260504221535 | 51 | 113 | 0.0 | 0.0 | 0.00 | 0.00 | 0.00 | 96 | 986.0 |
| 20260504220026 | 51 | 101 | 0.0 | 0.0 | 0.00 | 0.00 | 0.00 | 96 | 985.7 |
| 20260504214524 | 50 | 102 | 0.0 | 1.0 | 0.00 | 0.00 | 0.00 | 95 | 985.4 |
| 20260504213023 | 50 | 321 | 0.0 | 1.0 | 0.00 | 0.00 | 0.00 | 95 | 985.2 |
| 20260504211520 | 50 | 338 | 0.0 | 2.0 | 0.00 | 0.00 | 0.00 | 95 | 984.9 |
| 20260504210017 | 51 | 203 | 0.0 | 2.0 | 0.00 | 0.00 | 0.00 | 95 | 984.7 |
| 20260504204518 | 51 | 119 | 0.0 | 1.0 | 0.00 | 0.00 | 0.00 | 95 | 984.4 |
| 20260504203016 | 51 | 107 | 0.0 | 4.0 | 0.00 | 0.00 | 0.00 | 95 | 984.3 |
| 20260504201510 | 51 | 90 | 1.0 | 5.0 | 0.00 | 0.00 | 0.00 | 94 | 983.9 |
| 20260504200009 | 51 | 101 | 0.0 | 0.0 | 0.00 | 0.00 | 0.00 | 94 | 983.8 |
| 20260504194509 | 51 | 100 | 0.0 | 0.0 | 0.00 | 0.00 | 0.00 | 94 | 983.8 |
| 20260504193007 | 51 | 101 | 0.0 | 0.0 | 0.00 | 0.00 | 0.00 | 94 | 983.7 |
| 20260504191507 | 51 | 102 | 0.0 | 0.0 | 0.00 | 0.00 | 0.00 | 93 | 983.5 |
| 20260504190006 | 51 | 102 | 0.0 | 0.0 | 0.00 | 0.00 | 0.00 | 93 | 983.4 |
| 20260504184602 | 52 | 101 | 0.0 | 0.0 | 0.00 | 0.00 | 0.00 | 93 | 983.2 |
| 20260504183105 | 52 | 101 | 0.0 | 2.0 | 0.00 | 0.00 | 0.00 | 92 | 983.1 |
| 20260504181602 | 52 | 110 | 0.0 | 2.0 | 0.00 | 0.00 | 0.00 | 92 | 983.0 |
| 20260504180057 | 52 | 93 | 0.0 | 3.0 | 0.00 | 0.00 | 0.00 | 92 | 982.9 |
| 20260504174555 | 52 | 172 | 0.0 | 1.0 | 0.00 | 0.00 | 0.00 | 93 | 982.8 |
| 20260504173153 | 52 | 188 | 1.0 | 3.0 | 0.00 | 0.00 | 0.00 | 92 | 982.8 |
| 20260504171556 | 52 | 60 | 0.0 | 3.0 | 0.00 | 0.00 | 0.00 | 91 | 982.6 |